Flag for Russia Weather past 2 weeks in Kazan, Russia

Now
46 °F

Clear.


Feels Like: 41 °F
Forecast: 42 / 59 °F
Wind: 10 mph from Northeast

Location: Kazan'

Current Time: May 6, 2015 at 11:35:40 PM

Latest Report: May 6, 2015 at 11:00 PM


Visibility: 10 mi

Pressure: 30.04 "Hg

Humidity: 46%

Dew point: 27 °F

Location of KazanLocation

Historic Weather in Kazan — Graph

°F

Kazan temperature yesterday

Maximum temperature yesterday: 61 °F (at 1:30 AM)
Minimum temperature yesterday: 45 °F (at 10:30 PM)
Average temperature yesterday: 54 °F

Past Weeks' High & Low Weather Summary

 TemperatureHumidityPressure
High77 °F (Apr 30, 12:00 PM)100% (Apr 21, 10:00 PM)30.18 "Hg (Apr 21, 10:00 PM)
Low30 °F (Apr 23, 3:30 AM)19% (May 3, 5:00 PM)29.12 "Hg (Apr 24, 5:30 AM)
Average50 °F67%29.85 "Hg
* Reported Apr 21 10:00 PM — May 6 10:30 PM, Kazan, Weather by CustomWeather, © 2015

Note: Actual official high and low records may vary slightly from our data, if they occured in-between our weather recording intervals... More about our weather records

Advertising

Kazan weather history for previous 24 hours

 ConditionsComfort  
Time TempWeatherWind HumidityBarometerVisibility
10:30 PM
Wed, May 6
46 °FClear.8 mph46%30.04 "Hg10 mi
10:00 PM46 °FClear.8 mph46%30.04 "Hg10 mi
9:30 PM46 °FClear.6 mph46%30.04 "Hg10 mi
9:00 PM48 °FClear.8 mph40%30.04 "Hg10 mi
8:30 PM50 °FClear.10 mph37%30.04 "Hg10 mi
8:00 PM50 °FSunny.10 mph35%30.04 "Hg10 mi
7:30 PM54 °FSunny.10 mph30%30.04 "Hg10 mi
7:00 PM55 °FSunny.10 mph28%30.04 "Hg10 mi
6:30 PM55 °FSunny.13 mph28%30.04 "Hg10 mi
6:00 PM57 °FSunny.15 mph25%30.04 "Hg10 mi
5:30 PM57 °FSunny.10 mph27%30.04 "Hg10 mi
5:00 PM57 °FSunny.15 mph25%30.04 "Hg10 mi
4:30 PM59 °FSunny.15 mph25%30.04 "Hg10 mi
4:00 PM59 °FSunny.15 mph23%30.04 "Hg10 mi
3:30 PM59 °FSunny.17 mph27%30.04 "Hg10 mi
3:00 PM59 °FSunny.15 mph25%30.04 "Hg10 mi
2:30 PM57 °FSunny.15 mph27%30.04 "Hg10 mi
2:00 PM57 °FSunny.15 mph27%30.07 "Hg10 mi
1:30 PM57 °FSunny.15 mph29%30.07 "Hg10 mi
1:00 PM57 °FSunny.15 mph31%30.07 "Hg10 mi
12:30 PM55 °FSunny.15 mph31%30.07 "Hg10 mi
12:00 PM55 °FSunny.15 mph31%30.09 "Hg10 mi
11:30 AM54 °FSunny.15 mph33%30.09 "Hg10 mi
11:00 AM54 °FSunny.15 mph35%30.09 "Hg10 mi
10:30 AM52 °FSunny.15 mph38%30.09 "Hg10 mi
10:00 AM50 °FSunny.15 mph43%30.09 "Hg10 mi
9:30 AM50 °FSunny.15 mph40%30.09 "Hg10 mi
9:00 AM48 °FSunny.15 mph46%30.09 "Hg10 mi
8:30 AM46 °FSunny.15 mph50%30.12 "Hg10 mi
8:00 AM45 °FSunny.17 mph53%30.12 "Hg10 mi
7:30 AM45 °FSunny.17 mph53%30.12 "Hg10 mi
7:00 AM43 °FSunny.17 mph61%30.12 "Hg10 mi
6:30 AM43 °FSunny.15 mph61%30.12 "Hg10 mi
6:00 AM41 °FSunny.20 mph66%30.09 "Hg10 mi
5:30 AM39 °FSunny.17 mph70%30.09 "Hg10 mi
5:00 AM39 °FSunny.17 mph70%30.09 "Hg10 mi
4:30 AM39 °FClear.15 mph70%30.09 "Hg10 mi
4:00 AM39 °FClear.15 mph70%30.09 "Hg10 mi
3:30 AM39 °FClear.13 mph70%30.09 "Hg10 mi
3:00 AM39 °FClear.15 mph70%30.09 "Hg10 mi
2:30 AM41 °FClear.15 mph66%30.09 "Hg10 mi
2:00 AM41 °FClear.17 mph66%30.07 "Hg10 mi
1:30 AM43 °FClear.15 mph61%30.07 "Hg10 mi
1:00 AM43 °FClear.15 mph61%30.07 "Hg10 mi
12:30 AM43 °FClear.13 mph61%30.07 "Hg10 mi
12:00 AM43 °FClear.15 mph61%30.07 "Hg10 mi
11:30 PM
Tue, May 5
45 °FClear.17 mph57%30.07 "Hg10 mi
11:00 PM45 °FClear.15 mph57%30.07 "Hg10 mi
Weather by CustomWeather, © 2015

See weather overviewHow to use our weather pages